05.05.2024;19:00;82
05.05.2024;18:00;83
05.05.2024;17:00;82
05.05.2024;16:00;82
05.05.2024;15:00;84
05.05.2024;14:00;88
05.05.2024;13:00;85
05.05.2024;12:00;79
05.05.2024;11:00;76
05.05.2024;10:00;67
05.05.2024;09:00;33
05.05.2024;08:00;18
05.05.2024;07:00;5
05.05.2024;06:00;1
05.05.2024;05:00;1
05.05.2024;04:00;2
05.05.2024;03:00;7
05.05.2024;02:00;7
05.05.2024;01:00;14
05.05.2024;00:00;15
04.05.2024;23:00;32
04.05.2024;22:00;54
04.05.2024;21:00;72
04.05.2024;20:00;76
04.05.2024;19:00;83
04.05.2024;18:00;84
04.05.2024;17:00;83
04.05.2024;16:00;83
04.05.2024;15:00;83
04.05.2024;14:00;80
04.05.2024;13:00;80
04.05.2024;12:00;78
04.05.2024;11:00;75
04.05.2024;10:00;70
04.05.2024;09:00;60
04.05.2024;08:00;36
04.05.2024;07:00;21
04.05.2024;06:00;32
04.05.2024;05:00;41
04.05.2024;04:00;42
04.05.2024;03:00;48
04.05.2024;02:00;45
04.05.2024;01:00;50
04.05.2024;00:00;51
03.05.2024;23:00;58
03.05.2024;22:00;60
03.05.2024;21:00;59
03.05.2024;20:00;51
